Location: Unspecified
(51.6250°N, 0.8230°E)
Time: 02:51:44

CZ-3 Stage 3 - Visible Passes

Search period start: 21 March 2018 00:00
Search period end: 31 March 2018 01:00
Orbit: 440 x 34757 km, 31.0° (Epoch: 20 March)

Date Brightness Start Highest point End Pass type
(mag) Time Alt. Az. Time Alt. Az. Time Alt. Az.
23 Mar 8.5 05:54:35 10° SSE 08:23:22 22° SSE 08:52:55 10° ESE visible
26 Mar 8.5 06:35:36 10° SSE 09:13:59 23° SSE 09:44:01 10° ESE visible
29 Mar 8.6 06:16:51 10° SSE 09:04:35 24° SSE 09:35:04 10° ESE visible
